831  
ASUS42 KMHX 180522  
RWRMHX  
WEATHER ROUNDUP FOR EASTERN NORTH CAROLINA  
NATIONAL WEATHER SERVICE NEWPORT/MOREHEAD CITY NC  
1200 AM EST THU DEC 18 2014  
 
NOTE: "FAIR" INDICATES FEW OR NO CLOUDS BELOW 12,000 FEET  
WITH NO SIGNIFICANT WEATHER AND/OR S TO VISIBILITY
 
 
NCZ015>017-031-032-045>047-102-103-180600-  
NORTH COAST  
 
CITY SKY/WX TMP DP RH WIND PRES REMARKS
 
EDENTON N/A 42 39 91 CALM 30.05S  
ELIZABETH CITY MOCLDY 46 37 71 W7 30.04S  
KITTY HAWK MOCLDY 47 42 85 CALM 30.02F  
MANTEO CLOUDY 46 41 82 W3 30.04S  
 

 
 
NCZ045>047-081-094-103-104-180600-  
CENTRAL COAST  
 
CITY SKY/WX TMP DP RH WIND PRES REMARKS
 
FRISCO MOCLDY 49 46 90 W5 30.05F  
SWANQUARTER N/A 48 N/A N/A W1 30.00F  
 

 
 
NCZ095-097-098-100-101-180600-  
SOUTHERN COAST  
 
CITY SKY/WX TMP DP RH WIND PRES REMARKS
 
BEAUFORT CLOUDY 48 45 89 SW5 30.07F  
CEDAR ISLAND N/A 48 N/A N/A SW3 30.09S  
JACKSONVILLE CLOUDY 45 40 82 SW5 30.07F  
PINEY ISLAND NOT AVBL  
WILMINGTON PTCLDY 41 39 93 CALM 30.08F  
 

 
 
NCZ011>013-027>030-043-044-078>080-089-090>093-098-180600-  
COASTAL PLAIN  
 
CITY SKY/WX TMP DP RH WIND PRES REMARKS
 
AHOSKIE PTCLDY 36 35 94 CALM 30.06S  
CLINTON CLOUDY 41 40 98 CALM 30.08S  
ELIZABETHTOWN PTCLDY 40 38 91 CALM 30.08F  
GOLDSBORO CLOUDY 45 44 97 CALM 30.06S  
GREENVILLE CLOUDY 39 39 100 CALM 30.08S  
HAVELOCK CLOUDY 45 41 86 SW6 30.08F  
KENANSVILLE CLOUDY 39 38 99 CALM 30.08S  
KINSTON CLOUDY 45 40 83 CALM 30.07F  
NEW BERN CLOUDY 47 40 76 SW5 30.07F  
RICHLANDS CLOUDY 39 36 87 CALM 30.07F  
ROCKY MOUNT MOCLDY 42 36 79 CALM 30.07S  
WASHINGTON CLOUDY 42 40 94 CALM 30.06S  
WHITEVILLE PTCLDY 40 38 93 CALM 30.08F  
 

 
 
AMZ130-135-150-152-154-156-158-170-250-252-270-ANZ085-086-088-633-658-670-180600-  
MARINE OBSERVATIONS  
 
STATION/POSITION TIME TEMP WIND PRES WAVE SWELL
 
AIR SEA DIR/SP/G HT/PER HT/PER  
(UTC) (F) (DEG/KT/KT) (MB) (FT/S) (FT/S)  
CHESAPEAKE LIGHT 0500 47 10/ 15/ 16 1016.9  
64 E VA BEACH 0500 54 54 270/ 12/ 14 1015.3 2/ 8 2/ 8  
DUCK 0500 49 49 250/ 7/ 9 1016.1  
2 E DUCK 0500 49 N/A 1/10  
10 NE DUCK 0500 50 N/A 2/ 8  
OREGON INLET 0500 49 51 230/ 6/ 7 1016.9  
13E OREGON INLT 0500 53 N/A 2/ 7  
HATTERAS CG 0500 51 55 260/ 6/ 7 1017.9  
DIAMOND BUOY 0500 56 1018.1 3/ 4  
17 S OCRACOKE NOT AVBL  
CAPE LOOKOUT 0500 55 260/ 7/ 8 1018.0  
BEAUFORT LAB 0500 51 53 230/ 2/ 4 1017.1  
30 SE NEW RIVER 0500 57 61 270/ 12/ 14 1019.0 3/ 8 2/ 8  
5 SE WRIGHTSVLE 0400 50 55 270/ 10/ 14 1019.0  
225 S CAPE HAT 0412 68 72 280/ 6/ 10 1018.9 5/ 7 5/ 7  
41 SE CHARLESTON 0500 61 73 270/ 10/ 14 1019.2 1/11 2/11  
 

 
 
CLICK HERE TO GO TO PREVIOUS BULLETINS.

The Nexlab NC Page Main Text Page